Погода в Зеленодольске

Россия / Республика Татарстан     55°50′48″N   48°30′02″E
темп.,
°C
ветер,
м/с
пор.,
м/с
влажн.,
%
обл.,
%
осадки,
мм/ч
давл.,
гПа
погр.,
м
12 апреля, пн
пн1200:00+1ссв2399100 0.0 103579
03:000св2491100 0.1 103696
06:00+1ссв2889100 0.1 1037172
09:00+5всв3883100 0.1 1038285
12:00+8всв4777100 0.0 1037364
15:00+9всв2478100 0.0 1038286
18:00+7всв4887100 0.0 1037161
21:00+6вюв388793 0.0 1038160
13 апреля, вт
вт1300:00+5вюв498592 0.0 1037184
03:00+4вюв3689100 0.0 1036102
06:00+5вюв229297 0.0 103636
09:00+11ююв4680100 0.0 1035296
12:00+16ю466582 0.0 1034637
15:00+18ю465675 0.0 1033967
18:00+14ю336832 0.0 103138
21:00+11ююв227858 0.0 103214
14 апреля, ср
ср1400:00+9ю227959 0.0 103115
03:00+8ю22805 0.0 103115
06:00+7ю227394 0.0 103124
09:00+13ю354855 0.0 1030351
12:00+17ю453249 0.0 1028881
15:00+18ю45345 0.0 10271056
18:00+15ююв33560 0.0 102538
21:00+11ююв22705 0.0 102511
15 апреля, чт
чт1500:00+10ююв22785 0.0 102410
03:00+8ю11815 0.0 102410
06:00+9ю11815 0.0 102310
09:00+14ю23635 0.0 1022368
12:00+17ююз33545 0.0 10211135
15:00+18ююз335057 0.0 10191550
18:00+16юз2356100 0.0 101826
21:00+14юз226931 0.0 101728
16 апреля, пт
пт1600:00+11ююз228085 0.0 101714
03:00+11юз22789 0.0 101611
06:00+10з117513 0.0 101514
09:00+15зсз33532 0.0 1015437
12:00+18зсз56395 0.0 10142172
15:00+17ссз874281 0.0 10131955
18:00+6с9148288 0.1 1017699
21:00+6с51173100 0.1 10191223